855  
ASUS44 KLUB 092010  
RWRLUB  
WEST TEXAS WEATHER ROUNDUP  
NATIONAL WEATHER SERVICE LUBBOCK TX  
200 PM CST FRI DEC 09 2022  
 
NOTE: "FAIR" INDICATES FEW OR NO CLOUDS BELOW 12,000 FEET WITH NO  
SIGNIFICANT WEATHER AND/OR S TO VISIBILITY
.  
 
TXZ004-006>008-010-012-014-016-OKZ002-092100-  
TEXAS PANHANDLE/OKLAHOMA PANHANDLE  
 
CITY SKY/WX TMP DP RH WIND PRES REMARKS
 
AMARILLO PTSUNNY 52 30 43 S16 30.06F  
BORGER CLOUDY 54 31 41 SE8 30.09F  
CANADIAN PTSUNNY 52 29 41 SE8 30.11F  
DALHART PTSUNNY 47 21 35 S14 30.07F  
DUMAS CLOUDY 48 27 44 SE14 30.07F  
GUYMON PTSUNNY 50 27 40 S15 30.06F  
HEREFORD PTSUNNY 55 32 42 SE8 30.09F  
PAMPA CLOUDY 53 34 49 SE17 30.08F  
PERRYTON PTSUNNY 48 27 43 SE14 30.09F  

 
 
TXZ026-029-035-045-048-092100-  
SOUTHERN PANHANDLE/SOUTH PLAINS/ROLLING PLAINS  
 
CITY SKY/WX TMP DP RH WIND PRES REMARKS
 
CHILDRESS LGT RAIN 50 42 74 SE6 30.13F  
SEMINOLE CLOUDY 52 47 81 E8 30.11F  
LUBBOCK CLOUDY 49 39 68 SE10 30.08F  
PLAINVIEW CLOUDY 47 35 63 E6 30.08F  
SNYDER CLOUDY 49 48 95 NE10 30.09F  

 
 
TXZ052-054-060>062-072-078-127-140-154-169-092100-  
PERMIAN BASIN/CONCHO VALLEY/BIG COUNTRY/EDWARDS PLATEAU  
 
CITY SKY/WX TMP DP RH WIND PRES REMARKS
 
ABILENE FOG 60 59 96 N6 30.07F VSB 1/2  
BIG SPRING CLOUDY 56 54 94 E12 30.06F FOG  
BRADY PTSUNNY 75 57 53 SE10G20 30.05F  
BROWNWOOD CLOUDY 73 63 68 SE8 30.06F  
JUNCTION CLOUDY 75 59 57 S10 30.06F  
MIDLAND FOG 57 57 100 NE7 30.05F VSB 1/2  
ODESSA CLOUDY 59 59 100 E9 30.05F FOG  
SAN ANGELO CLOUDY 73 58 59 S9 30.03F HAZE  
SONORA PTSUNNY 73 59 60 S15 30.09F  
SWEETWATER CLOUDY 52 52 100 NE5 30.11F VSB 1/2  
WINK CLOUDY 63 58 83 S3 30.02F HAZE  

 
 
TXZ055-058-074-075-080-082-092100-  
FAR WEST/SOUTHWEST MOUNTAINS/TRANS PECOS  
 
CITY SKY/WX TMP DP RH WIND PRES REMARKS
 
ALPINE SUNNY 73 49 42 SW13G23 30.11F  
DRYDEN N/A 67 60 78 E10 30.05F  
EL PASO CLOUDY 62 40 44 SW5 30.05F  
FORT STOCKTON MOSUNNY 68 56 65 SE15 30.02F  
GUADALUPE PASS N/A N/A N/A N/A MISG N/A  
MARFA SUNNY 69 52 54 S18 30.08F  
PECOS PTSUNNY 59 51 75 NW5 30.05F  
PRESIDIO FAIR 73 58 59 SE3 30.02F  

 
 
TXZ014-016-019-021>030-083-092100  
TEXAS TECH WEST TEXAS MESONET/TEXAS PANHANDLE/NORTHERN SOUTH PLAINS  
 
CITY SKY/WX TMP DP RH WIND PRES REMARKS
 
ABERNATHY 5ENE N/A 46 40 77 E9 30.09F  
AMARILLO 9NNE N/A 54 29 39 S13 30.08F  
AMARILLO 7SSE N/A 51 30 45 S10 30.10F  
AMHERST 1NE N/A 51 32 48 SE12 30.09S  
BOOTLEG 11WNW N/A 53 22 29 S12 30.09F  
CANADIAN 6E N/A 51 30 45 SE14 30.10F  
CAPROCK CYN SP N/A 47 39 73 SE9 30.11F  
CHILDRESS 2NNE N/A 51 41 68 E7 30.13F  
CLARENDON 2WSW N/A 49 34 55 SE12 30.11F  
CLAUDE 12SW N/A 49 33 54 SE8 30.09F  
DIMMITT 2NE N/A 52 35 54 SE10 30.09F  
FLOYDADA 2NNE N/A 46 41 81 E9 30.10F  
FRIONA 2NE N/A 52 28 40 S7 30.09F  
GOODLETT 3W N/A 50 47 90 E7 30.11F  
HART 3N N/A 51 35 55 SE7 30.09F  
HEREFORD 2NW N/A 53 29 41 SE7 30.09F  
MCLEAN 1E N/A 51 34 52 SE12 30.09F  
MEMPHIS 1NE N/A 51 36 57 SE10 30.13F  
MULESHOE 2SSW N/A 53 28 37 SE7 30.09F  
OLTON 6S N/A 51 34 52 SE7 30.08F  
PALO DURO SP N/A 50 31 49 SE6 30.11F  
PAMPA 2E N/A 51 31 46 SE15 30.10F  
PLAINVIEW 1S N/A 48 35 62 SE10 30.09F  
SILVERTON 7ESE N/A 46 38 72 SE12 30.09F  
TULIA 2ENE N/A 50 38 65 E9 30.09F  
TURKEY 2WSW N/A 48 41 75 E8 30.10F  
UMBARGER 3NNE N/A 52 31 44 SE13 30.09F  

 
 
TXZ033>036-039>041-045>048-092100  
TEXAS TECH WEST TEXAS MESONET/SOUTH PLAINS  
 
CITY SKY/WX TMP DP RH WIND PRES REMARKS
 
AIKEN 3WSW N/A 46 39 75 E14 30.10F  
ANDREWS 2NE N/A 55 53 94 E5 30.06F  
ANTON 6SSW N/A 48 39 72 E9 30.08F  
BROWNFIELD 2S N/A 51 40 66 SE10 30.08F  
DENVR CTY 7WNW N/A 53 40 60 E9 30.06F  
GAIL 2ESE N/A 48 47 95 NE7 30.08F  
LAMESA 2SE N/A 48 47 94 E7 30.08F  
LUBBOCK 3WNW N/A 50 40 69 SE9 30.08F  
MORTON 1ENE N/A 51 33 50 SE7 30.09F  
ODONNELL 1N N/A 46 45 95 E8 30.09F  
PLAINS 3N N/A 51 37 60 SE9 30.07F  
RALLS 1SE N/A 47 40 75 E9 30.09F  
REESE CENTER N/A 49 39 68 E7 30.09F  
SEAGRAVES 1SW N/A 52 40 63 E6 30.07F  
SEMINOLE 2NNE N/A 52 47 85 E8 30.07F  
SLATON 2NE N/A 47 40 77 E10 30.09F  
SNYDER 3E N/A 48 46 94 NE6 30.08F  
SUNDOWN 8SW N/A 49 38 65 SE12 30.08F  
TAHOKA 3NNE N/A 46 43 90 E7 30.08F  
WOLFFORTH 6SSW N/A 49 41 72 SE14 30.08F  

 
 
TXZ031-032-036>038-042>044-092100-  
TEXAS TECH WEST TEXAS MESONET/ROLLING PLAINS  
 
CITY SKY/WX TMP DP RH WIND PRES REMARKS
 
ASPERMONT 3NE N/A 47 47 98 N5 30.10F  
FLUVANNA 3WNW N/A 46 46 98 NE7 30.08F  
GRAHAM 5SSW N/A 45 44 94 E6 30.09F  
GUTHRIE 10WSW N/A 46 44 93 N9 30.10F  
HASKELL 1NW N/A 50 50 98 NE9 30.09F  
JAYTON 1SSE N/A 46 46 97 NE5 30.10F  
KNOX CITY 3NW N/A 50 50 99 N5 30.10F  
LK A HENRY 1NW N/A 46 44 95 E5 30.09F  
NORTHFIELD 1S N/A 46 44 93 CALM 30.12F  
ODELL 4ENE N/A 54 42 64 E8 30.13F  
PADUCAH 10SW N/A 46 45 96 CALM 30.13F  
POST 1NE N/A 46 42 84 NE6 30.09F  
RRING SPRGS 3N N/A 43 40 89 CALM 30.10F  
SEYMOUR 3NW N/A 53 52 98 E6 30.11F  
SPUR 1W N/A 47 46 95 NE7 30.09F  
WEINERT 2NNE N/A 51 50 97 NE6 30.10F  
WHITE RVR 6NE N/A 46 44 93 N7 30.08F  

 
 
TXZ052-054-060>062-072-078-127-140-154-169-092100-  
TEXAS TECH WEST TEXAS MESONET/PERMIAN BASIN/  
CONCHO VALLEY/BIG COUNTRY/EDWARDS PLATEAU  
 
CITY SKY/WX TMP DP RH WIND PRES REMARKS
 
COYANOSA 2N N/A 65 54 67 CALM 30.03F  
JUNCTION 1SSW N/A 74 58 57 S9 30.06F  
MERTZON 3NNE N/A 70 60 68 SE7 30.06F  
SAN ANGELO 7NW N/A 71 62 75 CALM 30.05F  
STRLNG CT 4WSW N/A 68 61 78 SE9 30.07F  
ST LAWRNCE 5SW N/A 65 60 84 S14 30.06F  
SWEETWATR 11SW N/A 52 52 99 NE10 30.09F  
WALL 1E N/A 74 60 62 S10 30.05F  

 
 
TXZ055-058-074-075-080-082-092100-  
TEXAS TECH WEST TEXAS MESONET/FAR WEST/SOUTHWEST MOUNTAINS/TRANS PECOS  
 
CITY SKY/WX TMP DP RH WIND PRES REMARKS
 
PRSMN GAP BBNP N/A 71 58 62 NE9 30.02F  
GUADLPE MTN NP N/A 58 46 65 SW13 30.10F  

 
 
 
CLICK HERE TO GO TO PREVIOUS BULLETINS.

The Nexlab TX Page Main Text Page